Location: Asheville, NC
(35.6000°N, 82.5500°W)
Time: 23:45:07
(UTC-04:00)

Vanguard 2 Rocket - Pass Details

Date: 11 December 2017
Orbit: 553 x 3328 km, 32.9° (Epoch: 25 April)

Event Time Altitude Azimuth Distance (km) Brightness Sun altitude
Exits shadow 03:39:46 30° 187° (S) 3,963 9.9 -45.9°
Drops below altitude 10° 03:46:53 10° 160° (SSE) 4,773 10.7 -44.4°
Sets 03:50:24 0° 152° (SSE) 5,420 11.1 -43.7°
